Powrót do katalogu

STARLINK-4331

AktywnyŁącznośćSSO
NORAD 53046·PAYLOAD·🇺🇸 United States

Wystrzelony Jul 11, 2022 z Vandenberg Space Force Base

Loading…

Następne Przeloty (najbliższe 24 godziny)

TLE

ŚwieżeSource: CelesTrak SupGP

Epoka: Sep 14, 2026, 20:44 UTC

1 53046C 22077D   26257.86437500  .00081632  00000+0  25349-2 0  2572
2 53046  97.2857  73.6445 0001666  93.7933 205.7887 15.33387228    10

Śledź STARLINK-4331 w czasie rzeczywistym z AllMySat

Download on the App Store